Location: Gorze? G�rny
(49.8500°N, 19.5000°E)
Time: 02:59:35
(UTC+00:00)

Cosmos 2150 Rocket - Pass Details

Date: 13 May 2021
Orbit: 750 x 807 km, 74.0° (Epoch: 23 June)

Event Time Altitude Azimuth Distance (km) Brightness Sun altitude
Exits shadow 21:57:12 43° 145° (SE) 1,101 4.4 -20.9°
Maximum altitude 21:58:21 50° 106° (ESE) 990 4.3 -21.0°
Drops below altitude 10° 22:03:27 10° 33° (NNE) 2,329 7.1 -21.1°
Sets 22:05:52 0° 28° (NNE) 3,252 8.1 -21.2°
